Regional Weather Roundup
Issued by NWS

Home | Current Version | Previous Version | Graphics & Text | Print | Product List | Glossary On
Versions: 1 2 3 4 5 6 7 8 9 10 11 12 13 14 15 16 17 18 19 20 21 22 23 24 25 26 27 28 29 30 31 32 33 34 35 36 37 38 39 40 41 42 43 44 45 46 47 48 49 50
000
ASUS43 KBIS 301202
RWRND

NORTH DAKOTA REGIONAL WEATHER ROUNDUP
NATIONAL WEATHER SERVICE BISMARCK ND
700 AM CDT SAT JUL 30 2016

NOTE: "FAIR" INDICATES FEW OR NO CLOUDS BELOW 12,000 FEET WITH NO
SIGNIFICANT WEATHER AND/OR OBSTRUCTIONS TO VISIBILITY.


NDZ001>003-009>011-017-301300-
NORTHWEST NORTH DAKOTA

CITY           SKY/WX    TMP DP  RH WIND       PRES   REMARKS
WILLISTON      CLEAR     54  52  93 CALM      29.90R
6HR MIN TEMP:  53; 6HR MAX TEMP:  65;

MINOT          CLEAR     65  60  84 S3        29.89S
MINOT AFB      CLEAR     57  56  97 CALM      29.88S
$$

NDZ018>021-031>035-040>046-301300-
SOUTHWEST NORTH DAKOTA

CITY           SKY/WX    TMP DP  RH WIND       PRES   REMARKS
BISMARCK       LGT RAIN  64  64 100 E8        29.93S
6HR MIN TEMP:  63; 6HR MAX TEMP:  67; 6HR PCP:  1.18;

DICKINSON      FOG       54  53  97 CALM      29.90F VSB 1/2
GARRISON         N/A     62  61  96 S7        29.91R
6HR MIN TEMP:  61; 6HR MAX TEMP:  67; 6HR PCP:  0.02;

HETTINGER ARPT CLEAR     53  51  93 CALM      29.94S
$$

NDZ004>008-012>016-024-026-027-054-301300-
NORTHEAST NORTH DAKOTA

CITY           SKY/WX    TMP DP  RH WIND       PRES   REMARKS
GRAND FORKS    CLOUDY    66  63  90 SE8       29.95R
GRND FRKS AFB  MOCLDY    65  63  93 SE8       29.95S
DEVILS LAKE    PTCLDY    65  60  84 SE6       29.93F
$$

NDZ022-023-025-028>030-036>039-047>053-301300-
SOUTHEAST NORTH DAKOTA

CITY           SKY/WX    TMP DP  RH WIND       PRES   REMARKS
FARGO          PTCLDY    66  60  81 S9        29.97S
6HR MIN TEMP:  66; 6HR MAX TEMP:  71;

JAMESTOWN      CLEAR     61  58  90 S9        29.95R
$$





USA.gov is the U.S. government's official web portal to all federal, state and local government web resources and services.